East Taunton, MA

9:21 AM EST on February 25, 2017 (GMT -0500)
Taunton Municipal

Weather History for KTAN - December, 2011

Change the Weather History Date:

Tuesday, December 13, 2011

  Actual Average Record
Temperature  
Mean Temperature 32 °F -  
Max Temperature 46 °F 43 °F 64 °F (1983)
Min Temperature 19 °F 23 °F -6 °F (1958)
Degree Days  
Heating Degree Days 32    
Moisture  
Dew Point 25 °F    
Average Humidity 87    
Maximum Humidity 100    
Minimum Humidity 33    
Precipitation  
Precipitation 0.00 in - - ()
Sea Level Pressure  
Sea Level Pressure 30.32 in    
Wind  
Wind Speed 1 mph (NNW)    
Max Wind Speed 9 mph    
Max Gust Speed -    
Visibility 5 miles    
Events Fog    
Averages and records for this station are not official NWS values.
T = Trace of Precipitation, MM = Missing Value Source: NWS Daily Summary

Daily Weather History Graph

Daily Weather History Graph

Search for Another Location

Airport or City:

Trip Planner

Search our weather history database for the weather conditions in past years. The results will help you decide how hot, cold, wet, or windy it might be!

Date:

Astronomy

Dec. 13, 2011 Rise Set
Actual Time 7:02 AM EST 4:13 PM EST
Civil Twilight 6:31 AM EST 4:44 PM EST
Nautical Twilight 5:56 AM EST 5:20 PM EST
Astronomical Twilight 5:22 AM EST 5:53 PM EST
Moon 7:26 PM EST (12/13) 9:09 AM EST (12/13)
Length of Visible Light 10h 13m
Length of Day
9h 10m
Waning Gibbous, 90% of the Moon is Illuminated
Dec 13
Waning Gibbous
Dec 17
Last Quarter
Dec 24
New
Jan 1
First Quarter
Jan 9
Full

Hourly Weather History & Observations

Time (EST) Temp. Windchill Dew Point Humidity Pressure Visibility Wind Dir Wind Speed Gust Speed Precip Events Conditions
12:07 AM 28.4 °F - 26.6 °F 93% 30.40 in 10.0 mi Calm Calm - N/A   Mostly Cloudy
12:22 AM 26.6 °F - 26.6 °F 100% 30.39 in 9.0 mi Calm Calm - N/A   Scattered Clouds
12:52 AM 27.0 °F - 26.1 °F 96% 30.39 in 6.0 mi Calm Calm - N/A   Clear
1:52 AM 26.1 °F - 25.0 °F 96% 30.38 in 5.0 mi Calm Calm - N/A   Clear
2:52 AM 25.0 °F - 24.1 °F 96% 30.37 in 8.0 mi Calm Calm - N/A   Clear
3:52 AM 25.0 °F - 24.1 °F 96% 30.35 in 6.0 mi Calm Calm - N/A   Clear
4:52 AM 21.9 °F - 21.0 °F 96% 30.34 in 7.0 mi Calm Calm - N/A   Clear
5:52 AM 21.0 °F - 19.0 °F 92% 30.33 in 4.0 mi Calm Calm - N/A   Clear
6:32 AM 19.4 °F - 17.6 °F 93% 30.32 in 1.8 mi Calm Calm - N/A   Clear
6:39 AM 19.4 °F - 17.6 °F 93% 30.32 in 1.0 mi Calm Calm - N/A   Clear
6:42 AM 19.4 °F - 17.6 °F 93% 30.32 in 2.0 mi Calm Calm - N/A   Clear
6:49 AM 19.4 °F - 17.6 °F 93% 30.32 in 4.0 mi Calm Calm - N/A   Clear
6:52 AM 19.9 °F - 18.0 °F 92% 30.32 in 5.0 mi Calm Calm - N/A   Clear
7:52 AM 19.9 °F - 19.0 °F 96% 30.33 in 6.0 mi Calm Calm - N/A   Clear
8:52 AM 30.0 °F - 27.0 °F 88% 30.32 in 7.0 mi Calm Calm - N/A   Clear
9:52 AM 36.0 °F 33.3 °F 25.0 °F 64% 30.31 in 10.0 mi NW 3.5 mph - N/A   Clear
10:52 AM 41.0 °F 38.0 °F 18.0 °F 40% 30.29 in 10.0 mi NNW 4.6 mph - N/A   Clear
11:52 AM 45.0 °F 42.6 °F 17.1 °F 33% 30.27 in 10.0 mi Variable 4.6 mph - N/A   Clear
12:52 PM 46.0 °F 42.5 °F 19.0 °F 34% 30.26 in 10.0 mi NW 6.9 mph - N/A   Clear
1:52 PM 45.0 °F 41.2 °F 19.0 °F 36% 30.26 in 10.0 mi Variable 6.9 mph - N/A   Clear
2:52 PM 45.0 °F 40.1 °F 26.1 °F 48% 30.27 in 10.0 mi North 9.2 mph - N/A   Clear
3:52 PM 42.1 °F 39.2 °F 30.9 °F 65% 30.28 in 10.0 mi North 4.6 mph - N/A   Clear
4:52 PM 39.0 °F 35.7 °F 33.1 °F 79% 30.29 in 10.0 mi North 4.6 mph - N/A   Clear
5:52 PM 35.1 °F - 32.0 °F 89% 30.30 in 10.0 mi Calm Calm - N/A   Clear
6:52 PM 28.9 °F - 28.0 °F 96% 30.30 in 8.0 mi Calm Calm - N/A   Clear
7:41 PM 28.4 °F - 28.4 °F 100% 30.31 in 1.8 mi Calm Calm - N/A   Clear
7:52 PM 28.0 °F - 28.0 °F 100% 30.31 in 1.2 mi Calm Calm - N/A   Clear
7:56 PM 28.4 °F - 26.6 °F 93% 30.31 in 2.0 mi Calm Calm - N/A   Clear
8:00 PM 28.4 °F - 28.4 °F 100% 30.31 in 1.0 mi Calm Calm - N/A   Clear
8:09 PM 28.4 °F - 28.4 °F 100% 30.31 in 0.5 mi Calm Calm - N/A Fog Light Freezing Fog
8:18 PM 28.4 °F - 26.6 °F 93% 30.31 in 1.5 mi Calm Calm - N/A   Clear
8:24 PM 28.4 °F - 26.6 °F 93% 30.31 in 0.8 mi Calm Calm - N/A   Clear
8:41 PM 28.4 °F - 26.6 °F 93% 30.31 in 2.5 mi Calm Calm - N/A   Clear
8:52 PM 28.0 °F - 27.0 °F 96% 30.31 in 1.5 mi Calm Calm - N/A   Clear
9:01 PM 26.6 °F - 26.6 °F 100% 30.31 in 1.0 mi Calm Calm - N/A   Clear
9:08 PM 26.6 °F - 26.6 °F 100% 30.31 in 0.8 mi Calm Calm - N/A   Clear
9:24 PM 26.6 °F - 26.6 °F 100% 30.31 in 1.5 mi Calm Calm - N/A   Clear
9:26 PM 26.6 °F - 26.6 °F 100% 30.30 in 5.0 mi Calm Calm - N/A   Clear
9:52 PM 27.0 °F - 25.0 °F 92% 30.30 in 7.0 mi Calm Calm - N/A   Clear
10:52 PM 27.0 °F - 26.1 °F 96% 30.31 in 6.0 mi Calm Calm - N/A   Clear
11:52 PM 27.0 °F - 26.1 °F 96% 30.32 in 9.0 mi Calm Calm - N/A   Clear